Main page
METAR-TAF:

METAR-TAF

Airports :

Sialkot International Airport

Sialkot, Pakistan

latitude: 32-32N, longitude: 74-22E, elevation: 255 m

Current weather observation

The report was made 38 minutes ago, at 03:00 UTC
Wind 14 kt from the Northeast
Temperature 21°C
Humidity 94%
Pressure 1013 hPa
Visibility: 5000 m
Few clouds at a height of 3000 ft, Cumulonimbus.
Scattered clouds at a height of 4000 ft
Scattered clouds at a height of 10000 ft
thunderstorm, light rain

METAR: OPST 230300Z 05014KT 5000 -TSRA FEW030CB SCT040 SCT100 21/20 Q1013 TEMPO 05015G30KT 3000 RH95

Time: 08:38 (03:38 UTC)


TAF: missing

Weather observations and forecasts of more than 4000 airports (METAR and TAF reports).

The available stations are represented by yellow and red dots on the map.

Hover mouse over dot to see the name of the station.

Then click to see weather observations and forecasts.

To change the map : click on the green buttons with a black cross to zoom in, on the green button with a dash to zoom out, or on the green arrows for adjacent maps.


METAR-TAF: